Location: Boiro
(42.6475°N, 8.8834°W)
Time: 02:12:52
(UTC+01:00)

Vanguard 3 - Pass Details

Date: 07 December 2021
Orbit: 508 x 3260 km, 33.3° (Epoch: 19 January)

Event Time Altitude Azimuth Distance (km) Brightness Sun altitude
Exits shadow 06:01:36 33° 239° (WSW) 4,570 10.4 -30.5°
Maximum altitude 06:12:41 62° 175° (S) 3,379 10.1 -28.5°
Drops below altitude 10° 06:28:27 10° 100° (E) 5,047 12.2 -25.6°
Sets 06:31:46 0° 97° (E) 5,752 12.9 -25.0°
